This demonstration page uses our WeatherBlox Daily Observations layout. Learn more.

Left ArrowRight Arrow

Hourly Observations for August 3, 2021

Temp ( °F °C ) Dew Point ( °F °C ) Humidity (%) Winds ( mph kmh ) Pressure ( in mb ) Visibility ( mi km ) Precip ( " mm )
12:53 am 00:53 Clear 59 15 58 14.4 96 96 N N/A 30.10 1019 10 16 N/A
1:53 am 01:53 Clear 57 13.9 57 13.9 100 100 N N/A 30.10 1019 10 16 N/A
2:53 am 02:53 Clear 57 13.9 57 13.9 100 100 N N/A 30.09 1019 10 16 N/A
3:53 am 03:53 Clear 56 13.3 56 13.3 100 100 N N/A 30.08 1019 10 16 N/A
4:53 am 04:53 Clear 56 13.3 56 13.3 100 100 N N/A 30.08 1019 10 16 N/A
5:53 am 05:53 Clear 55 12.8 55 12.8 100 100 N N/A 30.08 1019 10 16 N/A
6:53 am 06:53 Sunny 55 12.8 55 12.8 100 100 N N/A 30.09 1019 8 13 N/A
7:53 am 07:53 Sunny 61 16.1 59 15 93 93 N N/A 30.10 1019 10 16 N/A
8:53 am 08:53 Sunny 66 18.9 59 15 78 78 N N/A 30.10 1019 10 16 N/A
9:53 am 09:53 Sunny 72 22.2 59 15 64 64 VRB 3 6 30.10 1019 10 16 N/A
10:53 am 10:53 Sunny 76 24.4 59 15 56 56 N N/A 30.09 1019 10 16 N/A
11:53 am 11:53 Sunny 77 25 56 13.3 48 48 ENE 9 15 30.09 1019 10 16 N/A
12:53 pm 12:53 Partly Cloudy 80 26.7 55 12.8 42 42 E 8 13 30.08 1019 10 16 N/A
1:53 pm 13:53 Mostly Sunny 80 26.7 55 12.8 42 42 SSE 3 6 30.06 1018 10 16 N/A
2:53 pm 14:53 Mostly Cloudy 79 26.1 54 12.2 42 42 NNE 3 6 30.05 1018 10 16 N/A
3:53 pm 15:53 Sunny 82 27.8 56 13.3 41 41 ENE 6 9 30.04 1017 10 16 N/A
4:53 pm 16:53 Partly Cloudy 82 27.8 55 12.8 40 40 ENE 6 9 30.04 1017 10 16 N/A
5:53 pm 17:53 Mostly Sunny 81 27.2 54 12.2 39 39 ENE 8 13 30.04 1017 10 16 N/A
6:53 pm 18:53 Mostly Sunny 80 26.7 54 12.2 41 41 N 3 6 30.03 1017 10 16 N/A
7:53 pm 19:53 Cloudy 79 26.1 56 13.3 45 45 N 7 11 30.03 1017 10 16 N/A
8:53 pm 20:53 Mostly Cloudy 73 22.8 57 13.9 57 57 NNE 5 7 30.04 1017 10 16 N/A
9:53 pm 21:53 Mostly Clear 68 20 60 15.6 76 76 NNE 5 7 30.06 1018 10 16 N/A
10:53 pm 22:53 Clear 64 17.8 60 15.6 87 87 N 3 6 30.06 1018 10 16 N/A
11:53 pm 23:53 Clear 61 16.1 59 15 93 93 N N/A 30.06 1018 10 16 N/A

Powered by AerisWeather